Vorticity
nan nan nan nan nan nan nan nan nan nan nan nan nan nan nan nan nan nan nan nan nan nan nan nan nan nan nan nan nan nan nan nan nan nan nan nan nan nan nan nan nan nan nan nan
nan -3 5 10 7 7 10 11 9 5 6 11 12 17 4 6 5 4 6 7 6 8 8 9 9 8 10 7 7 8 8 10 12 11 9 8 9 9 9 6 7 7 9 nan
nan 1 5 9 6 10 10 4 6 7 14 14 16 14 0 5 4 5 6 7 7 7 8 8 9 9 8 8 9 8 8 10 9 10 10 10 10 9 9 7 7 6 9 nan
nan 1 6 7 6 12 7 1 11 19 20 17 17 11 3 4 1 3 6 7 7 7 8 8 8 9 9 8 8 8 8 10 9 9 9 9 11 9 10 9 6 6 8 nan
nan 4 5 5 8 9 5 12 20 27 25 9 8 8 5 5 4 5 6 7 7 7 7 7 8 8 9 9 8 8 8 9 8 9 9 10 10 10 10 6 7 11 9 nan
nan 6 2 6 10 4 6 16 23 23 14 3 4 9 12 2 3 5 6 7 7 8 9 7 8 9 9 8 9 8 7 8 9 8 7 8 9 12 10 9 11 10 10 nan
nan -0 3 1 12 2 6 19 16 2 4 6 14 14 12 1 6 4 6 8 9 9 8 8 8 9 8 7 9 9 7 9 9 9 9 9 8 10 10 10 10 10 10 nan
nan 4 1 10 6 7 7 13 9 5 7 10 14 15 13 4 2 7 7 7 7 8 8 9 10 10 8 8 8 9 8 10 9 9 10 10 10 11 8 8 10 11 8 nan
nan 13 7 6 2 11 7 7 9 12 11 13 10 9 6 8 3 8 8 6 7 7 7 7 9 10 9 8 8 8 9 11 9 9 9 9 10 10 7 9 12 9 8 nan
nan 12 9 -0 4 6 7 7 10 11 11 6 9 11 15 8 1 4 7 7 7 7 7 9 9 8 9 10 9 8 8 9 11 9 9 8 9 9 10 9 7 10 10 nan
nan 12 2 9 13 4 3 8 10 10 7 7 8 16 15 7 5 5 5 5 6 6 8 9 8 9 9 9 9 9 9 9 10 9 8 9 8 9 11 10 8 10 9 nan
nan 11 8 19 13 5 2 3 8 7 7 9 12 14 11 4 5 8 7 9 7 6 8 9 8 8 10 9 9 9 10 10 8 8 9 9 9 9 9 10 9 10 11 nan
nan 12 15 13 4 -5 -2 3 8 10 11 7 7 13 0 -4 10 7 9 10 8 5 7 10 9 10 10 9 9 9 10 10 9 8 9 9 10 9 9 10 10 10 10 nan
nan 10 8 0 -0 3 10 6 9 12 7 9 6 -1 1 11 9 11 12 11 6 6 9 9 9 11 10 9 10 10 11 9 9 10 10 9 9 10 9 10 10 9 10 nan
nan 5 5 5 15 18 8 6 10 11 12 7 6 7 12 13 12 10 7 8 9 9 9 6 11 11 9 10 10 11 10 9 10 11 10 10 9 10 10 9 9 10 10 nan
nan 4 7 15 21 10 2 16 13 8 9 12 9 9 8 7 11 9 9 11 12 10 8 9 8 11 11 11 12 12 11 10 10 11 11 10 9 9 10 10 10 10 11 nan
nan 4 13 13 7 11 17 20 17 9 7 9 10 15 10 11 9 11 17 11 9 11 8 10 11 11 11 11 12 11 11 11 11 10 9 10 11 9 10 10 9 10 11 nan
nan 7 11 8 11 13 15 17 12 9 6 7 11 17 11 5 5 13 15 14 8 7 13 11 11 10 11 12 11 10 10 10 10 9 9 9 10 10 11 9 11 11 11 nan
nan 7 10 11 11 11 17 15 7 7 12 20 13 7 7 8 12 18 1 2 13 12 11 10 10 10 11 11 10 10 8 9 9 9 9 10 10 11 11 11 13 9 11 nan
nan 8 3 5 10 13 15 15 8 10 20 15 9 5 9 12 12 5 7 9 10 13 11 10 10 11 11 11 10 9 9 9 9 9 10 11 11 9 12 12 10 10 11 nan
nan 12 10 8 9 9 17 13 4 8 12 7 8 9 11 13 10 6 9 11 12 10 11 12 11 11 11 9 9 8 11 9 10 9 11 10 11 12 11 11 11 10 9 nan
nan 11 14 12 10 18 17 4 3 6 6 5 8 9 12 10 9 9 10 11 11 11 12 12 12 11 11 9 8 9 10 9 9 10 12 11 12 11 10 12 12 11 10 nan
nan 7 7 11 11 15 4 2 4 0 4 7 10 10 10 9 10 10 11 11 12 12 12 11 12 10 9 9 9 11 10 11 11 12 11 12 10 9 11 11 13 10 10 nan
nan 9 1 4 8 -3 6 17 6 8 9 8 9 10 10 9 9 10 11 11 11 11 12 11 11 10 11 10 11 12 11 10 11 13 14 14 9 11 11 11 11 13 11 nan
nan 14 16 7 11 14 15 16 14 15 8 9 8 8 8 9 9 10 10 11 11 10 11 12 12 10 10 11 12 11 10 11 13 12 13 12 9 12 12 12 13 11 11 nan
nan nan nan nan nan nan nan nan nan nan nan nan nan nan nan nan nan nan nan nan nan nan nan nan nan nan nan nan nan nan nan nan nan nan nan nan nan nan nan nan nan nan nan nan
CAPE
0 0 0 0 0 0 0 0 0 0 0 0 0 0 0 0 0 0 0 0 0 0 0 0 6 5 0 0 0 0 0 1 1 1 0 4 4 4 0 0 1 9 6 69
0 0 0 0 0 0 0 0 0 0 0 0 0 11 0 0 0 0 0 0 0 0 0 0 1 1 15 1 2 5 0 2 3 2 4 5 6 5 2 0 1 4 4 5
0 0 0 0 0 0 0 0 0 0 0 0 19 6 0 0 0 0 0 0 0 0 0 0 3 3 4 1 5 8 15 9 15 9 7 3 2 1 2 0 0 2 3 7
0 0 0 0 0 0 0 0 0 0 1 6 6 2 0 0 0 0 0 0 0 0 0 0 3 4 3 3 12 25 22 19 19 16 8 11 1 1 1 5 4 3 1 2
0 0 0 0 0 0 0 0 0 0 0 14 2 6 1 0 0 0 0 0 0 0 0 0 0 1 1 1 4 21 38 23 33 26 14 2 9 1 1 2 4 3 3 3
0 0 0 0 0 0 0 0 0 0 14 11 0 0 1 0 0 0 0 0 0 0 0 0 0 3 5 0 4 12 14 30 37 28 12 7 2 3 3 0 0 3 4 3
0 0 0 0 0 0 0 0 0 0 6 13 0 13 0 0 0 0 0 0 0 0 0 2 0 0 4 5 4 10 11 23 42 37 13 15 10 4 10 4 9 11 7 6
0 0 0 0 0 0 0 0 1 5 11 24 1 1 6 0 0 0 0 0 0 0 8 1 7 3 0 5 6 14 12 23 43 37 35 20 25 13 17 13 8 13 9 8
0 0 0 0 0 0 0 0 0 0 1 5 13 1 1 2 0 0 0 1 0 0 4 11 5 12 13 7 2 11 18 20 40 35 25 27 27 22 16 5 10 5 1 2
0 0 0 0 0 0 0 0 0 0 4 8 23 15 6 0 0 0 0 0 1 0 0 9 13 6 16 21 7 12 11 22 43 37 37 29 36 34 24 14 10 1 7 7
0 0 0 0 0 0 0 0 0 0 5 8 14 29 2 0 0 0 0 0 1 0 6 10 12 14 7 18 19 15 13 22 41 37 33 36 38 31 24 23 14 7 10 4
0 0 0 0 0 0 0 0 0 0 0 0 32 28 0 0 0 0 0 0 0 0 11 10 13 17 16 13 19 16 21 29 21 21 29 45 32 33 29 28 16 8 11 10
0 0 0 0 0 0 0 0 0 0 0 5 10 1 3 0 0 0 0 1 0 1 6 15 15 27 21 21 30 18 13 30 22 22 24 30 32 35 28 24 17 7 15 9
0 0 0 0 0 0 0 0 0 0 0 2 0 0 0 0 1 14 0 4 0 3 5 17 39 33 20 28 39 23 16 28 21 21 23 26 42 33 36 26 25 7 3 8
0 0 0 0 0 0 0 0 0 0 0 0 0 0 0 20 5 45 20 17 1 0 4 10 41 41 20 35 37 25 21 19 27 30 26 25 35 34 33 38 16 9 1 11
0 0 0 0 0 0 0 0 0 0 0 0 0 0 15 0 6 2 18 14 17 15 12 27 22 13 9 17 23 14 10 32 39 30 34 29 28 24 27 34 26 6 2 2
0 0 0 0 0 0 0 0 0 0 0 0 0 0 1 0 0 8 26 12 48 11 48 19 14 3 9 19 22 24 29 37 32 29 29 28 23 26 22 33 28 10 6 4
0 0 0 0 0 0 0 0 0 0 0 0 0 11 0 0 1 11 4 0 27 31 8 1 1 6 11 16 18 27 27 26 23 19 14 17 24 28 22 38 30 11 9 9
0 0 0 0 0 0 0 0 0 0 0 0 0 0 0 0 0 0 0 1 19 16 16 5 9 9 10 7 6 10 10 16 15 25 21 17 31 29 24 33 24 23 7 8
0 0 0 0 0 0 0 0 0 0 0 0 0 0 0 0 6 7 5 3 0 0 2 6 0 3 1 2 2 3 2 3 2 12 26 23 23 22 27 35 28 33 7 10
0 0 0 0 0 0 0 0 0 0 0 0 0 0 0 4 8 6 0 0 0 0 0 0 0 1 1 4 0 1 9 10 12 10 19 23 24 17 27 30 36 32 12 4
0 0 0 0 0 0 0 0 0 0 0 0 0 0 0 0 0 0 0 0 0 0 0 0 0 0 3 0 0 0 1 6 3 0 13 13 25 4 14 41 39 21 7 8
0 0 0 0 0 0 0 0 0 0 0 0 0 0 0 0 0 0 0 0 0 0 0 0 0 2 0 0 0 0 5 0 0 1 5 9 20 4 12 19 41 29 1 3
0 0 0 0 0 0 0 0 0 0 0 0 0 0 0 0 0 0 0 0 0 0 0 0 0 0 0 0 0 0 0 0 0 4 5 11 7 11 13 21 45 6 1 0
0 0 0 0 0 0 0 0 0 0 0 0 0 0 0 0 0 0 0 0 0 0 0 0 0 0 0 0 0 0 0 0 0 0 1 6 10 19 11 17 22 9 0 0
0 0 0 0 0 0 0 0 0 0 0 0 0 0 0 0 0 0 0 0 0 0 0 0 0 0 0 0 0 0 0 1 2 0 0 5 16 21 5 5 27 0 0 0